Regional Weather Roundup
Issued by NWS Little Rock, AR

Home | Current Version | Previous Version | Graphics & Text | Print | Product List | Glossary On
Versions: 1 2 3 4 5 6 7 8 9 10 11 12 13 14 15 16 17 18 19 20 21 22 23 24 25 26 27 28 29 30 31 32 33 34 35 36 37 38 39 40 41 42 43 44 45 46 47 48 49 50
000
ASUS44 KLZK 212305
RWRLZK

WEATHER ROUNDUP FOR ARKANSAS
NATIONAL WEATHER SERVICE LITTLE ROCK AR
600 PM CDT SUN SEP 21 2014

NOTE: "FAIR" INDICATES FEW OR NO CLOUDS BELOW 12,000 FEET WITH NO
SIGNIFICANT WEATHER AND/OR OBSTRUCTIONS TO VISIBILITY.

ARZ001-003-010-029-220000-
NORTHWEST ARKANSAS

CITY           SKY/WX    TMP DP  RH WIND       PRES   REMARKS
FAYETTEVILLE   SUNNY     76  49  38 N9        30.11R
FORT SMITH     SUNNY     84  63  49 N13       30.04S HX  85
HARRISON       SUNNY     75  48  38 NW8       30.10S
BENTONVILLE    SUNNY     75  50  41 N12       30.13S
ROGERS         SUNNY     75  48  38 N5        30.13S
SILOAM SPGS    SUNNY     75  50  41 N10       30.13R
HIGHFILL       SUNNY     76  50  40 N9        30.12S
SPRINGDALE     SUNNY     77  48  36 N9        30.13S
$$

ARZ004-005-016-220000-
NORTH CENTRAL ARKANSAS

CITY           SKY/WX    TMP DP  RH WIND       PRES   REMARKS
BATESVILLE     SUNNY     82  54  36 N9        30.02R
FLIPPIN        SUNNY     81  45  28 NW8       30.08R
MTN HOME       SUNNY     77  47  34 N5        30.07R
$$

ARZ040-041-220000-
WEST CENTRAL ARKANSAS

CITY           SKY/WX    TMP DP  RH WIND       PRES   REMARKS
MENA           PTSUNNY   79  70  73 CALM      30.07S
MOUNT IDA      MOSUNNY   80  70  71 NW3       30.02S
$$

ARZ009-017-025-026-028-220000-
NORTHEAST ARKANSAS

CITY           SKY/WX    TMP DP  RH WIND       PRES   REMARKS
CORNING          N/A     79  50  36 N8        30.03R
JONESBORO      SUNNY     83  51  33 N12G18    30.00R
NEWPORT        SUNNY     83  58  42 N16G22    30.01R
WALNUT RIDGE   SUNNY     81  48  32 N9        30.01S
BLYTHEVILLE    SUNNY     81  60  48 N12       29.99R
$$

ARZ022-023-033-042-044-220000-
CENTRAL ARKANSAS

CITY           SKY/WX    TMP DP  RH WIND       PRES   REMARKS
LITTLE ROCK    MOSUNNY   83  67  58 NW12      30.00F HX  85
N LITTLE ROCK  MOSUNNY   80  72  76 NW9       30.00F
JACKSONVILLE   MOSUNNY   82  70  67 NW7       30.01R HX  86
SEARCY         MOSUNNY   87  67  51 NW8       30.00S HX  90
HOT SPRINGS    MOSUNNY   83  69  62 NW5       30.02R HX  86
RUSSELLVILLE   SUNNY     82  72  71 VRB5      30.03R HX  87
CLINTON        FAIR      82  63  51 N3        30.04R
$$

ARZ036-220000-
EAST ARKANSAS

CITY           SKY/WX    TMP DP  RH WIND       PRES   REMARKS
WEST MEMPHIS   PTSUNNY   85  66  53 N7        29.96S HX  87
$$

ARZ050-053-066-070-073-220000-
SOUTHWEST ARKANSAS

CITY           SKY/WX    TMP DP  RH WIND       PRES   REMARKS
ARKADELPHIA    FAIR      87  73  62 N7        30.00R HX  94
CAMDEN         MOSUNNY   82  72  69 CALM      29.98F HX  87
TEXARKANA      MOSUNNY   84  69  60 N6        30.01S HX  88
EL DORADO      MOSUNNY   87  69  54 NW6       29.99S HX  91
DE QUEEN       MOSUNNY   85  71  63 N5        29.99S HX  90
$$

ARZ056-057-069-220000-
SOUTHEAST ARKANSAS

CITY           SKY/WX    TMP DP  RH WIND       PRES   REMARKS
PINE BLUFF     PTSUNNY   84  68  58 NW12      30.00R HX  87
STUTTGART      PTSUNNY   82  70  65 NW9       30.00R HX  86
MONTICELLO     PTSUNNY   86  70  58 NW3       29.98S HX  90

$$




USA.gov is the U.S. government's official web portal to all federal, state and local government web resources and services.